Regional Weather Roundup
Issued by NWS

Home | Current Version | Previous Version | Text Only | Print | Product List | Glossary Off
Versions: 1 2 3 4 5 6 7 8 9 10 11 12 13 14 15 16 17 18 19 20 21 22 23 24 25 26 27 28 29 30 31 32 33 34 35 36 37 38 39 40 41 42 43 44 45 46 47 48 49 50

000
ASUS43 KMPX 171910
RWRMN
WEATHER ROUNDUP FOR MINNESOTA
NATIONAL WEATHER SERVICE TWIN CITIES/CHANHASSEN MN
100 PM CST WED DEC 17 2014


NOTE: "FAIR" INDICATES FEW OR NO CLOUDS BELOW 12,000 FEET WITH NO
SIGNIFICANT WEATHER AND/OR OBSTRUCTIONS TO VISIBILITY. N/A MEANS
CURRENT SKY AND/OR WEATHER CONDITIONS ARE NOT AVAILABLE.

MNZ060>063-068>070-172000-
   Twin Cities Metro

CITY           SKY/WX    TMP DP  RH WIND       PRES   REMARKS
TWIN CITIES    MOSUNNY   18   9  68 CALM      30.30F
ST PAUL        MOSUNNY   17  10  74 NW6       30.32F WCI   9
CRYSTAL        PTSUNNY   17   9  70 W8        30.29F WCI   7
LAKEVILLE      SUNNY     18  10  73 W7        30.29S WCI   8
EDEN PRAIRIE   MOSUNNY   19   9  65 MISG      30.29F
SOUTH ST PAUL  PTSUNNY   19  11  70 NW7       30.30F WCI  10
LAKE ELMO      FAIR      18  10  73 N6        30.30F WCI   9
$$
MNZ001>005-007-008-013>017-022>024-027-028-172000-
   Northwest Minnesota

CITY           SKY/WX    TMP DP  RH WIND       PRES   REMARKS
BEMIDJI        SUNNY     19  12  76 NW3       30.28S
HALLOCK        LGT SNOW  12   9  85 W3        30.37F
ROSEAU         MOSUNNY   16   9  73 E5        30.33F WCI   9
WARROAD        MOSUNNY   12   7  79 CALM      30.34F
THIEF RVR FALL CLOUDY    16   9  73 CALM      30.34R
CROOKSTON      FLURRIES  14  10  85 NW6       30.37F WCI   5
FOSSTON        LGT SNOW  19  10  68 CALM      30.32S VSB 1
DETROIT LAKES  LGT SNOW  12  10  92 NW7       30.31F WCI   2
MOORHEAD       FLURRIES  14  12  92 N5        30.36F WCI   6
PARK RAPIDS    SUNNY     18  10  71 NW3       30.27F
MAHNOMEN       LGT SNOW  12   8  83 NW5       30.32S WCI   4
$$
MNZ006-009>011-018-025>026-172000-
   North Central Minnesota

CITY           SKY/WX    TMP DP  RH WIND       PRES   REMARKS
BAUDETTE       MOSUNNY   18   9  68 CALM      30.30F
FLAG ISLAND    SUNNY     12   7  79 NW5       30.33F WCI   4
INTL FALLS     SUNNY     17   6  62 NE7       30.30F WCI   8
WASKISH        MOSUNNY   21  16  79 CALM      30.30S
BIG FORK       SUNNY     19  10  68 N5        30.28S WCI  13
LONGVILLE      SUNNY     19  10  68 N3        30.27F
GRAND RAPIDS   SUNNY     18  10  73 N8        30.25F WCI   7
CRANE LAKE     SUNNY     18   9  68 NW3       30.31S
ORR            SUNNY     19   9  63 CALM      30.25S
COOK           SUNNY     18  10  73 NE3       30.26S
WALKER         FAIR      17   9  72 CALM      30.28S
$$
MNZ012-019>021-037-172000-
   Northeast Minnesota

CITY           SKY/WX    TMP DP  RH WIND       PRES   REMARKS
DULUTH         MOSUNNY   17   9  70 N5        30.22S WCI  10
ELY            MOSUNNY   18  10  73 N7        30.24S WCI   8
HIBBING        SUNNY     20  10  65 N8        30.25S WCI  10
EVELETH        SUNNY     21  12  68 NE6       30.25S WCI  14
DULUTH HARBOR  CLOUDY    21  12  68 CALM      30.29F
TWO HARBORS    MOSUNNY   25  14  63 NW3       30.23R
SILVER BAY     MOSUNNY   23  12  63 N5        30.22S WCI  17
GRAND MARAIS     N/A     24  11  57 N8        30.24S WCI  15
G MARAIS ARPRT PTSUNNY   14   7  73 N13       30.18R WCI   0
$$
MNZ029>031-032-039>041-046>048-054>057-064-172000-
   West Central Minnesota

CITY           SKY/WX    TMP DP  RH WIND       PRES   REMARKS
FERGUS FALLS   FLURRIES  10   7  85 NW8       30.36F WCI  -1
WHEATON        SUNNY     10   7  85 N7        30.35F WCI   0
MORRIS         SUNNY     16  10  79 N9        30.31F WCI   4
ALEXANDRIA     SUNNY     15   9  76 W9        30.28F WCI   3
ELBOW LAKE     FAIR      11   8  89 NW7       30.31F WCI   0
WADENA         SUNNY     16   9  73 CALM      30.28F
GLENWOOD       SUNNY     16  10  79 NW7       30.29F WCI   6
APPLETON       SUNNY     18  10  73 N3        30.32F
BENSON         SUNNY     16  10  79 N8        30.31F WCI   5
ORTONVILLE     SUNNY     14   7  73 NW6       30.32F WCI   5
MADISON        SUNNY     16  10  79 NW5       30.34S WCI   9
WILLMAR        FAIR      16  10  79 NW9       30.30F WCI   4
$$
MNZ033>034-036-042>043-049>051-058-059-172000-
   Central Minnesota

CITY           SKY/WX    TMP DP  RH WIND       PRES   REMARKS
ST CLOUD       CLOUDY    18   8  65 N8        30.30F WCI   8
SAUK CENTRE    FAIR      14   8  76 N5        30.29F WCI   6
PAYNESVILLE    SUNNY     13   9  82 W6        30.30S WCI   4
AITKIN         MOSUNNY   19  10  68 CALM      30.26S
PINE RIVER     SUNNY     16  10  79 N3        30.30F
BRAINERD       LGT SNOW  17   9  70 CALM      30.29S
STAPLES        LGT SNOW  14   9  79 CALM      30.29S
LONG PRAIRIE   FAIR      16  10  79 NW5       30.28F WCI   9
LITTLE FALLS   LGT SNOW  16   9  73 CALM      30.30F
LITCHFIELD     SUNNY     18  12  79 W6        30.30S WCI   9
BUFFALO        PTSUNNY   17  10  74 NW7       30.31F WCI   8
MAPLE LAKE     MOSUNNY   18  12  78 NW7       30.31F WCI   9
$$
MNZ037-044-045-052-053-172000-
   East Central Minnesota

CITY           SKY/WX    TMP DP  RH WIND       PRES   REMARKS
PRINCETON      FLURRIES  18  10  73 NW6       30.29F WCI   9
MORA           MOSUNNY   18   9  68 W6        30.30F WCI   9
CAMBRIDGE      FLURRIES  18   9  68 W3        30.28F
RUSH CITY      PTSUNNY   18   9  68 CALM      30.29F
MOOSE LAKE     CLOUDY    19  10  68 CALM      30.25S
HINCKLEY       CLOUDY    19  10  68 CALM      30.28S
CLOQUET        FLURRIES  18  10  73 N7        30.24S WCI   8
MCGREGOR       CLOUDY    18  10  73 NW5       30.28S WCI  11
$$
MNZ071>073-080-081-089-090-097-098-172000-
   Southwest Minnesota

CITY           SKY/WX    TMP DP  RH WIND       PRES   REMARKS
MONTEVIDEO     SUNNY     18  14  86 N3        30.32F
GRANITE FALLS  SUNNY     16  11  79 W6        30.34S WCI   8
CANBY          SUNNY     15  11  83 NW3       30.33F
MARSHALL       SUNNY     12   7  79 NW6       30.31F WCI   3
REDWOOD FALLS  SUNNY     18  10  71 VRB3      30.31F
OLIVIA         SUNNY     18  12  79 NW7       30.30F WCI   8
PIPESTONE      SUNNY     16  12  86 NE2       30.26F
WINDOM         SUNNY     16  10  79 CALM      30.28F
WORTHINGTON    SUNNY     18  12  79 N7        30.27F WCI   8
JACKSON        SUNNY     21  14  73 N6        30.27F WCI  14
TRACY          SUNNY     15  10  82 NW5       30.30F WCI   7
SLAYTON        SUNNY     16  13  86 CALM      30.27F
$$
MNZ065>067-074>077-082>085-091>093-172000-
   South Central Minnesota

CITY           SKY/WX    TMP DP  RH WIND       PRES   REMARKS
MANKATO        SUNNY     18   9  68 NW10      30.29F WCI   6
NEW ULM        SUNNY     18  12  79 NW7       30.30F WCI   8
ST JAMES       LGT SNOW  18  12  79 W9        30.31F WCI   6
FAIRMONT       SUNNY     18  10  73 NW7       30.29F WCI   8
GLENCOE        SUNNY     20  14  79 NW7       30.29F WCI  11
FARIBAULT      MOSUNNY   19  12  73 NW9       30.28F WCI   9
OWATONNA       MOSUNNY   18  12  79 NW10      30.27F WCI   6
WASECA         SUNNY     19  14  79 W10       30.29F WCI   8
ALBERT LEA     SUNNY     19  16  86 N8        30.26F WCI   9
$$
MNZ078>079-086>088-094>096-172000-
   Southeast Minnesota

CITY           SKY/WX    TMP DP  RH WIND       PRES   REMARKS
ROCHESTER      MOSUNNY   18  13  80 NW9       30.25F WCI   7
RED WING       FLURRIES  18  10  73 NW6       30.29F WCI   9
STANTON        PTSUNNY   18  11  74 NW6       30.29S WCI  10
DODGE CENTER   SUNNY     18  14  86 NW13      30.25F WCI   4
WINONA         MOSUNNY   21  14  73 N5        30.30S WCI  15
AUSTIN         SUNNY     18  12  79 NW12      30.26S WCI   5
PRESTON        MOSUNNY   18  13  79 N9        30.25F WCI   7
$$
ABBREVIATIONS USED IN REMARKS
   TC - TEMPERATURES IN CELSIUS
  WCI - WIND CHILL INDEX
   HX - HEAT INDEX
  VSB - VISIBILITY
$$



USA.gov is the U.S. government's official web portal to all federal, state and local government web resources and services.